Flag for France Weather past 2 weeks in Amsterdam Island, French Southern Territories, France

Now
65 °F

Mild.


Feels Like: 65 °F
Forecast: 62 / 67 °F
Wind: 9 mph from Northwest

Location: Martin De Vivies Ile Amsterdam

Current Time: Dec 21, 2014 at 11:45:06 PM

Latest Report: Dec 21, 2014 at 11:00 PM


Visibility: N/A

Pressure: 30.15 "Hg

Humidity: 95%

Dew point: 64 °F

Location of Amsterdam IslandLocation

Historic Weather in Amsterdam Island — Graph

°F

Amsterdam Island temperature yesterday

Maximum temperature yesterday: 69 °F (at 4:00 PM)
Minimum temperature yesterday: 63 °F (at 12:00 AM)
Average temperature yesterday: 65 °F

Past Weeks' High & Low Weather Summary

 TemperatureHumidityPressure
High70 °F (Dec 21, 1:00 PM)97% (Dec 16, 4:00 AM)30.51 "Hg (Dec 16, 4:00 AM)
Low49 °F (Dec 12, 8:00 PM)49% (Dec 12, 11:00 AM)29.84 "Hg (Dec 17, 5:00 PM)
Average60 °F78%30.24 "Hg
* Reported Dec 6 10:00 PM — Dec 21 10:00 PM, Amsterdam Island, Weather by CustomWeather, © 2014

Note: Actual official high and low records may vary slightly from our data, if they occured in-between our weather recording intervals... More about our weather records

Advertising

Amsterdam Island weather history for previous 24 hours

 ConditionsComfort  
Time TempWeatherWind HumidityBarometerVisibility
10:00 PM
Dec 21
65 °FMild.14 mph95%30.15 "HgN/A
9:00 PM65 °FMild.7 mph95%30.16 "HgN/A
8:00 PM65 °FMild.8 mph95%30.14 "HgN/A
7:00 PM65 °FMild.9 mph94%30.14 "HgN/A
6:00 PM66 °FMild.9 mph94%30.13 "HgN/A
5:00 PM66 °FMild.8 mph94%30.12 "HgN/A
4:00 PM67 °FMild.8 mph94%30.13 "HgN/A
3:00 PM67 °FMild.12 mph92%30.14 "HgN/A
2:00 PM68 °FMild.12 mph91%30.15 "HgN/A
1:00 PM70 °FMild.7 mph90%30.15 "HgN/A
12:00 PM69 °FMild.5 mph91%30.16 "HgN/A
11:00 AM69 °FMild.5 mph93%30.16 "HgN/A
10:00 AM67 °FMild.5 mph94%30.16 "HgN/A
9:00 AM66 °FMild.5 mph95%30.18 "HgN/A
7:00 AM65 °FMild.7 mph95%30.17 "HgN/A
6:00 AM66 °FMild.6 mph95%30.16 "HgN/A
5:00 AM65 °FMild.8 mph95%30.16 "HgN/A
4:00 AM64 °FMild.6 mph95%30.15 "HgN/A
3:00 AM64 °FMild.6 mph95%30.14 "HgN/A
1:00 AM64 °FMild.3 mph95%30.14 "HgN/A
12:00 AM64 °FMild.3 mph95%30.16 "HgN/A
11:00 PM
Dec 20
64 °FMild.3 mph95%30.17 "HgN/A
Weather by CustomWeather, © 2014

See weather overviewHow to use our weather pages